Hourly Data Report for October 22, 2015

All times are specified in Local Standard Time (LST). Add 1 hour to adjust for Daylight Saving Time where and when it is observed.

KUGAARUK CLIMATE
NUNAVUT

68°32'15.060" N
89°47'47.020" W
15.80 m
2303094
71407
NBB

Download Data

Hourly Data (October 2015)
Hourly Data Report for October 22, 2015
Temp Definition
°C
Dew Point Temp Definition
°C
Rel Hum Definition
%
Wind Dir Definition
10's deg

Wind Spd Definition
km/h
Visibility Definition
km
Stn Press Definition
kPa
Hmdx Definition


Wind Chill Definition


Weather Definition


TIME
00:00 -12.8 -15.3 82 25 37   101.88   -24 LegendNANA
01:00 -13.3 -15.7 82 24 37   101.84   -25 LegendNANA
02:00 -12.8 -15.2 82 23 43   101.81   -25 LegendNANA
03:00 -13.2 -15.6 82 23 43   101.82   -25 LegendNANA
04:00 -13.6 -15.9 82 23 43   101.79   -26 LegendNANA
05:00 -14.3 -16.8 81 22 34   101.79   -26 LegendNANA
06:00 -15.0 -17.8 79 23 38   101.75   -27 LegendNANA
07:00 -14.8 -17.6 79 22 36   101.69   -27 LegendNANA
08:00 -14.6 -17.6 78 22 37   101.65   -27 LegendNANA
09:00 -15.0 -18.0 77 21 35   101.63   -27 LegendNANA
10:00 -15.1 -17.9 79 22 29   101.64   -26 LegendNANA
11:00 -15.6 -18.5 79 21 25   101.57   -26 LegendNANA
12:00 -15.5 -18.7 77 23 22   101.54   -25 LegendNANA
13:00 -15.8 -19.4 74 23 26   101.48   -26 LegendNANA
14:00 -15.0 -19.2 70 24 27   101.37   -26 LegendNANA
15:00 -14.4 -18.7 70 23 27   101.28   -25 LegendNANA
16:00 -14.7 -18.6 72 23 17   101.22   -23 LegendNANA
17:00 -14.8 -18.2 75 25 17   101.13   -23 LegendNANA
18:00 -14.1 -17.4 76 26 16   101.07   -22 LegendNANA
19:00 -16.9 -19.8 78 7 10   101.02   -24 LegendNANA
20:00 -17.0 -19.5 81 7 3   100.94   -19 LegendNANA
21:00 -15.7 -18.1 82 0 1   100.86   -16 LegendNANA
22:00 -12.2 -13.9 87 21 2   100.76   -13 LegendNANA
23:00 -11.3 -13.4 84   0   100.65     LegendNANA

Notes on Data Quality.

Legend

  • E = Estimated
  • M = Missing
  • NA = Not Available
  • ‡ = Partner data that is not subject to review by the National Climate Archives
Date modified: